Aérodrome :
LOGIN :

S'inscrire | Disclaimer

   EN    FR    IT 

 










Légende :    VFR   VFR Marginal   IFR   IFR Intensif   IFR Très Intensif
Visi : 
Plafond : 
>= 8 km
>= 3000ft
5 à 8 km
1000 à 3000 ft
1500m à 5 km
500 à 1000 ft
800 à 1500m
200 à 500 ft
< 800m
< 200 ft
Symboles :   Orages  Brouillard  Fortes neiges  Fortes précipitations  Vent > 20 kt
SIGMETs :   Divers  Orages  Givrage  Turbulence  Onde Orograph.  Cendres Volcan.







- Altitude de l'aérodrome : 31 ft
- Code IATA : INV
- Voir les cartes d'approche


EGPE - Inverness

DERNIER METAR :
  • 200820Z 24012KT CAVOK 16/10 Q1029

METARs EXPIRÉS :
  • 200750Z 24010KT CAVOK 15/09 Q1029
  • 200720Z 24007KT CAVOK 14/09 Q1029
  • 200650Z 22007KT CAVOK 14/09 Q1029
  • 200620Z VRB03KT CAVOK 12/08 Q1029
  • 200550Z 23006KT CAVOK 11/07 Q1029

TAF TAF EGPE
Valide du 20 à 09h jusqu'au 20 à 18h UTC


200758Z 2009/2018 22007KT 9999 FEW008
TEMPO 2011/2015 5000 RA
PROB40
TEMPO 2013/2018 BKN008
ATIS : +44 1667 464 255
Pas de NOTAMs connus pour ce terrain.



MET'MAP, la Météo Aéronautique d'un coup d'oeil ! - Copyright ORBIFLY Décembre 2007 - Disclaimer

ORBIFLY MET'MAP TEAM :

Programmation & Développement : Alexandra Zaïnal
Conception & Développement : Baudouin d'Aumeries
Co-Programmation & Développement : Marc-Olivier Méhu
Soutien technique & logistique : Manuel Goepfert

Contact : metmap@orbifly.com




SOURCES & CREDITS :

   NOAA